Flag for Netherlands Weather past 2 weeks in Utrecht, Netherlands

Now
50 °F

Scattered showers. Passing clouds.


Feels Like: 42 °F
Forecast: 52 / 56 °F
Wind: 28 mph from Northwest

Location: Amsterdam Schiphol Airport

Current Time: Oct 22, 2014 at 4:18:57 AM

Latest Report: Oct 22, 2014 at 3:55 AM


Visibility: N/A

Pressure: 29.89 "Hg

Humidity: 71%

Dew point: 41 °F

Location of UtrechtLocation

Historic Weather in Utrecht — Graph

°F

Utrecht temperature yesterday

Maximum temperature yesterday: 57 °F (at 12:25 AM)
Minimum temperature yesterday: 48 °F (at 7:55 PM)
Average temperature yesterday: 54 °F

Past Weeks' High & Low Weather Summary

 TemperatureHumidityPressure
High72 °F (Oct 18, 3:55 PM)100% (Oct 7, 4:55 AM)30.01 "Hg (Oct 7, 4:55 AM)
Low48 °F (Oct 8, 4:25 AM)6% (Oct 21, 5:25 PM)29.39 "Hg (Oct 7, 10:55 AM)
Average57 °F88%29.75 "Hg
* Reported Oct 7 2:25 AM — Oct 22 2:55 AM, Utrecht, Weather by CustomWeather, © 2014

Note: Actual official high and low records may vary slightly from our data, if they occured in-between our weather recording intervals... More about our weather records

Advertising

Utrecht weather history for previous 24 hours

 ConditionsComfort  
Time TempWeatherWind HumidityBarometerVisibility
2:55 AM
Oct 22
48 °FRain showers. Passing clouds.35 mph76%29.86 "Hg4 mi
2:25 AM50 °FSprinkles. Passing clouds.31 mph67%29.86 "HgN/A
1:55 AM50 °FSprinkles. Passing clouds.28 mph67%29.83 "HgN/A
1:25 AM50 °FScattered showers. Passing clouds.28 mph71%29.83 "HgN/A
12:55 AM50 °FPassing clouds.25 mph71%29.80 "HgN/A
12:25 AM48 °FSprinkles. Partly cloudy.29 mph82%29.77 "HgN/A
11:55 PM
Oct 21
50 °FScattered showers. Passing clouds.28 mph76%29.74 "HgN/A
11:25 PM48 °FSprinkles. Partly cloudy.31 mph76%29.74 "HgN/A
10:55 PM52 °FThunderstorms. Passing clouds.21 mph72%29.71 "HgN/A
10:25 PM50 °FThunderstorms. Passing clouds.38 mph76%29.68 "Hg6 mi
9:55 PM50 °FSprinkles. Passing clouds.22 mph7%29.68 "HgN/A
9:25 PM48 °FPassing clouds.21 mph82%29.65 "HgN/A
8:55 PM50 °FPassing clouds.22 mph71%29.62 "HgN/A
8:25 PM48 °FSprinkles. Passing clouds.23 mph82%29.62 "HgN/A
7:55 PM48 °FThunderstorms. Passing clouds.25 mph87%29.59 "Hg5 mi
7:25 PM50 °FThunderstorms. Passing clouds.17 mph76%29.59 "HgN/A
6:55 PM50 °FScattered clouds.30 mph71%29.56 "HgN/A
6:25 PM54 °FScattered clouds.22 mph30%29.53 "HgN/A
5:55 PM52 °FScattered clouds.23 mph72%29.53 "HgN/A
5:25 PM54 °FScattered clouds.28 mph6%29.50 "HgN/A
4:55 PM54 °FPassing clouds.29 mph77%29.50 "HgN/A
4:25 PM54 °FSprinkles. Scattered clouds.23 mph77%29.47 "HgN/A
3:55 PM54 °FSprinkles. Scattered clouds.21 mph77%29.47 "Hg6 mi
3:25 PM55 °FPassing clouds.28 mph67%29.45 "HgN/A
2:55 PM55 °FPassing clouds.24 mph72%29.45 "HgN/A
2:25 PM57 °FScattered clouds.29 mph82%29.42 "HgN/A
1:55 PM57 °FRain showers. Broken clouds.28 mph88%29.42 "Hg3 mi
1:25 PM55 °FDrizzle. Broken clouds.21 mph100%29.42 "Hg4 mi
12:55 PM55 °FLight rain. Partly sunny.25 mph94%29.45 "Hg5 mi
12:25 PM55 °FRain. Partly sunny.23 mph94%29.47 "Hg4 mi
11:55 AM55 °FRain. Broken clouds.24 mph94%29.50 "Hg4 mi
11:25 AM55 °FDrizzle. Broken clouds.25 mph94%29.50 "Hg4 mi
10:55 AM54 °FLight rain. Broken clouds.23 mph100%29.53 "Hg6 mi
10:25 AM54 °FLight rain. Broken clouds.23 mph100%29.56 "Hg6 mi
9:55 AM54 °FDrizzle. Broken clouds.20 mph100%29.59 "Hg3 mi
9:25 AM55 °FBroken clouds.22 mph94%29.59 "HgN/A
8:55 AM55 °FPartly cloudy.20 mph94%29.62 "HgN/A
8:25 AM55 °FPartly cloudy.18 mph94%29.65 "Hg2 mi
7:55 AM55 °FPassing clouds.17 mph94%29.65 "Hg6 mi
7:25 AM55 °FPartly cloudy.17 mph94%29.68 "HgN/A
6:55 AM55 °FPassing clouds.17 mph94%29.68 "HgN/A
6:25 AM55 °FPassing clouds.14 mph94%29.71 "HgN/A
5:55 AM55 °FPassing clouds.16 mph94%29.71 "HgN/A
4:55 AM55 °FPassing clouds.14 mph94%29.74 "HgN/A
4:25 AM57 °FPassing clouds.12 mph88%29.77 "HgN/A
Weather by CustomWeather, © 2014

See weather overviewHow to use our weather pages